Weather History for LIRA - December, 2012

Change the Weather History Date:

Monday, December 31, 2012

  Actual Average Record
Temperature  
Mean Temperature 44 °F -  
Max Temperature 55 °F 53 °F 59 °F (1997)
Min Temperature 33 °F 37 °F 30 °F (1996)
Degree Days  
Heating Degree Days 21    
Moisture  
Dew Point 35 °F    
Average Humidity 77    
Maximum Humidity 100    
Minimum Humidity 47    
Precipitation  
Precipitation 0.00 in 0.13 in - ()
Sea Level Pressure  
Sea Level Pressure 30.20 in    
Wind  
Wind Speed 2 mph ()    
Max Wind Speed 5 mph    
Max Gust Speed -    
Visibility 6.2 miles    
Events      
Averages and records for this station are not official NWS values.
T = Trace of Precipitation, MM = Missing Value Source: Averaged Metar Reports

Daily Weather History Graph

Daily Weather History Graph

Search for Another Location

Airport or City:

Trip Planner

Search our weather history database for the weather conditions in past years. The results will help you decide how hot, cold, wet, or windy it might be!

Date:

Astronomy

Dec. 31, 2012 Rise Set
Actual Time 7:37 AM CET 4:48 PM CET
Civil Twilight 7:05 AM CET 5:20 PM CET
Nautical Twilight 6:30 AM CET 5:55 PM CET
Astronomical Twilight 5:56 AM CET 6:29 PM CET
Moon 8:05 PM CET (12/31) 9:06 AM CET (12/31)
Length of Visible Light 10h 14m
Length of Day
9h 11m
Waning Gibbous, 92% of the Moon is Illuminated
Dec 31
Waning Gibbous
Jan 5
Last Quarter
Jan 11
New
Jan 19
First Quarter
Jan 27
Full

Hourly Weather History & Observations

Time (CET) Temp. Windchill Dew Point Humidity Pressure Visibility Wind Dir Wind Speed Gust Speed Precip Events Conditions
12:15 AM 37.4 °F - 33.8 °F 87% 30.21 in - ESE 1.2 mph - N/A   Clear
12:45 AM 37.4 °F - 33.8 °F 87% 30.21 in - ESE 1.2 mph - N/A   Clear
1:15 AM 37.4 °F - 35.6 °F 93% 30.21 in - Calm Calm - N/A   Clear
1:45 AM 37.4 °F - 35.6 °F 93% 30.21 in - North 1.2 mph - N/A   Clear
2:15 AM 35.6 °F - 33.8 °F 93% 30.21 in - East 2.3 mph - N/A   Clear
2:45 AM 35.6 °F - 33.8 °F 93% 30.21 in - Calm Calm - N/A   Clear
3:15 AM 35.6 °F - 33.8 °F 93% 30.21 in - North 1.2 mph - N/A   Clear
3:45 AM 33.8 °F - 32.0 °F 93% 30.21 in - North 1.2 mph - N/A   Clear
4:15 AM 33.8 °F - 32.0 °F 93% 30.21 in - East 2.3 mph - N/A   Clear
4:45 AM 33.8 °F - 33.8 °F 100% 30.21 in - East 2.3 mph - N/A   Clear
5:15 AM 35.6 °F - 32.0 °F 87% 30.21 in - ENE 1.2 mph - N/A   Clear
5:45 AM 35.6 °F - 32.0 °F 87% 30.21 in - NNE 1.2 mph - N/A   Clear
6:15 AM 33.8 °F - 32.0 °F 93% 30.21 in - NE 2.3 mph - N/A   Clear
6:45 AM 33.8 °F - 32.0 °F 93% 30.21 in - NE 1.2 mph - N/A   Clear
7:15 AM 33.8 °F - 32.0 °F 93% 30.21 in - ENE 2.3 mph - N/A   Clear
7:45 AM 33.8 °F - 32.0 °F 93% 30.21 in - NE 2.3 mph - N/A   Clear
8:15 AM 33.8 °F 30.8 °F 32.0 °F 93% 30.24 in - ENE 3.5 mph - N/A   Clear
8:45 AM 35.6 °F 31.7 °F 32.0 °F 87% 30.24 in - NE 4.6 mph - N/A   Clear
9:15 AM 37.4 °F 34.9 °F 32.0 °F 81% 30.24 in - NNE 3.5 mph - N/A   Clear
9:45 AM 39.2 °F - 32.0 °F 75% 30.24 in - North 2.3 mph - N/A   Clear
10:15 AM 41.0 °F 39.0 °F 33.8 °F 76% 30.24 in - NE 3.5 mph - N/A   Clear
10:45 AM 42.8 °F 41.1 °F 32.0 °F 66% 30.24 in - NNE 3.5 mph - N/A   Clear
11:15 AM 46.4 °F - 33.8 °F 62% 30.24 in - NNE 2.3 mph - N/A   Clear
11:45 AM 48.2 °F - 33.8 °F 58% 30.24 in - North 2.3 mph - N/A   Clear
12:15 PM 50.0 °F - 32.0 °F 50% 30.21 in - North 2.3 mph - N/A   Clear
12:45 PM 51.8 °F - 33.8 °F 50% 30.21 in - ENE 1.2 mph - N/A   Clear
1:15 PM 53.6 °F - 33.8 °F 47% 30.18 in - Calm Calm - N/A   Clear
1:45 PM 53.6 °F - 37.4 °F 54% 30.18 in - SSW 1.2 mph - N/A   Clear
2:15 PM 53.6 °F - 35.6 °F 51% 30.18 in - West 3.5 mph - N/A   Clear
2:45 PM 55.4 °F - 37.4 °F 51% 30.18 in - West 3.5 mph - N/A   Clear
3:15 PM 53.6 °F - 37.4 °F 54% 30.18 in - WSW 2.3 mph - N/A   Clear
3:45 PM 53.6 °F - 35.6 °F 51% 30.18 in - West 2.3 mph - N/A   Clear
4:15 PM 53.6 °F - 33.8 °F 47% 30.18 in - Calm Calm - N/A   Clear
4:45 PM 51.8 °F - 33.8 °F 50% 30.15 in - SW 2.3 mph - N/A   Clear
5:15 PM 50.0 °F - 39.2 °F 66% 30.15 in - South 1.2 mph - N/A   Clear
5:45 PM 46.4 °F - 39.2 °F 76% 30.15 in - South 1.2 mph - N/A   Clear
6:15 PM 46.4 °F - 39.2 °F 76% 30.15 in - SSE 2.3 mph - N/A   Clear
6:45 PM 44.6 °F 43.1 °F 39.2 °F 81% 30.18 in - SSE 3.5 mph - N/A   Clear
7:15 PM 44.6 °F 42.2 °F 39.2 °F 81% 30.18 in - SSE 4.6 mph - N/A   Clear
7:45 PM 44.6 °F 43.1 °F 39.2 °F 81% 30.18 in - SSE 3.5 mph - N/A   Clear
8:15 PM 41.0 °F 39.0 °F 35.6 °F 81% 30.18 in - SSE 3.5 mph - N/A   Clear
8:45 PM 41.0 °F - 35.6 °F 81% 30.18 in - SE 2.3 mph - N/A   Clear
9:15 PM 41.0 °F - 35.6 °F 81% 30.15 in - SE 2.3 mph - N/A   Clear
9:45 PM 39.2 °F - 35.6 °F 87% 30.15 in 6.2 mi SSE 2.3 mph - N/A   Partly Cloudy
10:15 PM 39.2 °F - 37.4 °F 93% 30.15 in - SE 1.2 mph - N/A   Clear
10:45 PM 41.0 °F - 35.6 °F 81% 30.15 in - SE 1.2 mph - N/A   Clear
11:15 PM 41.0 °F - 37.4 °F 87% 30.15 in - SE 2.3 mph - N/A   Clear
11:45 PM 41.0 °F - 35.6 °F 81% 30.15 in 6.2 mi Calm Calm - N/A   Partly Cloudy